This is the latest recevied weather packets stored in our database for station/object K4FB. If no packets are shown the sender has not sent any weather packets the latest 10 day(s).
| Time | Temp. | Humidity | Pressure | Rain* | Wind** | Luminosity | Snow |
|---|---|---|---|---|---|---|---|
| 1777871402 | 19.44° C | 79% | 1017.7 hPa | 0 mm | - | - | - |
| 1777869927 | 20° C | 79% | 1018 hPa | 0 mm | - | - | - |
| 1777867807 | 20.56° C | 77% | 1018.3 hPa | 0 mm | - | - | - |
| 1777867217 | 20.56° C | 77% | 1018.1 hPa | 0 mm | - | - | - |
| 1777864806 | 21.11° C | 76% | 1018.1 hPa | 0 mm | - | - | - |
| 1777863622 | 21.11° C | 75% | 1018.1 hPa | 0 mm | - | - | - |
| 1777859407 | 21.11° C | 74% | 1017.6 hPa | 0 mm | - | - | - |
| 1777858803 | 21.67° C | 74% | 1017.8 hPa | 0 mm | - | - | - |
| 1777857009 | 21.67° C | 72% | 1017.5 hPa | 0 mm | - | - | - |
| 1777854613 | 22.22° C | 72% | 1016.8 hPa | 0 mm | - | - | - |
| 1777853107 | 22.78° C | 71% | 1016.8 hPa | 0 mm | - | - | - |
| 1777852851 | 22.78° C | 71% | 1016.6 hPa | 0 mm | - | - | - |
| 1777851916 | 23.33° C | 70% | 1016.4 hPa | 0 mm | - | - | - |
| 1777851607 | 23.89° C | 69% | 1016.4 hPa | 0 mm | - | - | - |
| 1777849219 | 24.44° C | 65% | 1016.4 hPa | 0 mm | - | - | - |
| 1777848610 | 24.44° C | 66% | 1016.2 hPa | 0 mm | - | - | - |
| 1777848329 | 24.44° C | 66% | 1016.3 hPa | 0 mm | - | - | - |
| 1777847422 | 24.44° C | 64% | 1016.4 hPa | 0 mm | - | - | - |
| 1777845625 | 25° C | 64% | 1016.3 hPa | 0 mm | - | - | - |
| 1777845009 | 25° C | 63% | 1016.2 hPa | 0 mm | - | - | - |
| 1777844114 | 25.56° C | 62% | 1016.1 hPa | 0 mm | - | - | - |
| 1777842314 | 26.67° C | 61% | 1016.1 hPa | 0 mm | - | - | - |
| 1777842023 | 26.67° C | 60% | 1016.3 hPa | 0 mm | - | - | - |
| 1777841408 | 27.22° C | 58% | 1016.4 hPa | 0 mm | - | - | - |
| 1777839318 | 26.11° C | 60% | 1016.6 hPa | 0 mm | - | - | - |
* Rain latest hour (hover to see other rain measurements)
** Current wind speed in m/s (hover to see current wind gust speed)